Location: Miles
(41.4492°N, 81.6087°W)
Time: 01:56:32
(UTC+00:00)

Courier 1B - Pass Details

Date: 13 September 2024
Orbit: 962 x 1208 km, 28.3° (Epoch: 15 October)

Event Time Altitude Azimuth Distance (km) Brightness Sun altitude
Rises 22:05:55 0° 248° (WSW) 3,996 12.4 16.4°
Reaches altitude 10° 22:09:02 10° 239° (WSW) 3,068 11.7 15.8°
Maximum altitude 22:15:31 30° 181° (S) 1,973 9.4 14.6°
Drops below altitude 10° 22:22:08 10° 123° (ESE) 3,140 9.8 13.4°
Sets 22:25:21 0° 113° (ESE) 4,104 10.2 12.8°
